Flagstaff, AZ

10:36 PM MST on September 21, 2017 (GMT -0700)
Flagstaff Pulliam

Weather History for KFLG - March, 2011

Change the Weather History Date:

Thursday, March 17, 2011

  Actual Average Record
Temperature  
Mean Temperature 47 °F 37 °F  
Max Temperature 58 °F 51 °F 73 °F (2007)
Min Temperature 36 °F 24 °F 3 °F (1991)
Degree Days  
Heating Degree Days 18 28  
Month to date heating degree days 431 496  
Since 1 July heating degree days 4964 5335  
Cooling Degree Days 0 0  
Month to date cooling degree days 0 0  
Year to date cooling degree days 0 0  
Moisture  
Dew Point 27 °F    
Average Humidity 48    
Maximum Humidity 64    
Minimum Humidity 31    
Precipitation  
Precipitation 0.00 in 0.06 in 0.73 in (1922)
Month to date precipitation 0.13 1.26  
Year to date precipitation 3.44 5.47  
Snow  
Snow 0.00 in 0.60 in 5.80 in (1963)
Month to date snowfall T 12.7  
Since 1 July snowfall 64.0 85.9  
Snow Depth 0.00 in    
Sea Level Pressure  
Sea Level Pressure 29.96 in    
Wind  
Wind Speed 12 mph (SW)    
Max Wind Speed 29 mph    
Max Gust Speed 36 mph    
Visibility 10 miles    
Events      
T = Trace of Precipitation, MM = Missing Value Source: NWS Daily Summary

Daily Weather History Graph

Daily Weather History Graph

Search for Another Location

Airport or City:

Trip Planner

Search our weather history database for the weather conditions in past years. The results will help you decide how hot, cold, wet, or windy it might be!

Date:

Astronomy

Mar. 17, 2011 Rise Set
Actual Time 6:34 AM MST 6:35 PM MST
Civil Twilight 6:09 AM MST 7:01 PM MST
Nautical Twilight 5:40 AM MST 7:30 PM MST
Astronomical Twilight 5:10 AM MST 8:00 PM MST
Moon 4:37 PM MST (3/17) 4:55 AM MST (3/17)
Length of Visible Light 12h 51m
Length of Day
12h 00m
Waxing Gibbous, 94% of the Moon is Illuminated
Mar 17
Waxing Gibbous
Mar 19
Full
Mar 26
Last Quarter
Apr 3
New
Apr 11
First Quarter

Hourly Weather History & Observations

Time (MST) Temp. Windchill Dew Point Humidity Pressure Visibility Wind Dir Wind Speed Gust Speed Precip Events Conditions
12:57 AM 48.0 °F - 25.0 °F 41% 29.93 in 10.0 mi WSW 11.5 mph 21.9 mph N/A   Clear
1:57 AM 48.0 °F - 26.1 °F 42% 29.92 in 10.0 mi WSW 15.0 mph 21.9 mph N/A   Clear
2:57 AM 45.0 °F 40.1 °F 26.1 °F 48% 29.91 in 10.0 mi SW 9.2 mph - N/A   Clear
3:57 AM 44.1 °F 39.0 °F 26.1 °F 49% 29.90 in 10.0 mi SW 9.2 mph - N/A   Clear
4:57 AM 39.9 °F 34.5 °F 26.1 °F 58% 29.94 in 10.0 mi SSW 8.1 mph - N/A   Clear
6:57 AM 43.0 °F 38.8 °F 27.0 °F 53% 29.97 in 10.0 mi SW 6.9 mph - N/A   Clear
7:57 AM 48.0 °F - 28.0 °F 46% 29.97 in 10.0 mi SW 13.8 mph - N/A   Clear
8:57 AM 51.1 °F - 27.0 °F 39% 29.98 in 10.0 mi SSW 17.3 mph 25.3 mph N/A   Clear
9:57 AM 54.0 °F - 26.1 °F 34% 29.98 in 10.0 mi SW 21.9 mph - N/A   Clear
10:57 AM 55.9 °F - 26.1 °F 32% 29.97 in 10.0 mi SW 19.6 mph 26.5 mph N/A   Clear
11:57 AM 55.9 °F - 28.0 °F 34% 29.97 in 10.0 mi WSW 20.7 mph 31.1 mph N/A   Clear
12:57 PM 57.9 °F - 30.0 °F 35% 29.94 in 10.0 mi SW 19.6 mph 31.1 mph N/A   Partly Cloudy
1:57 PM 55.0 °F - 28.9 °F 37% 29.93 in 10.0 mi SW 19.6 mph 27.6 mph N/A   Scattered Clouds
2:57 PM 55.9 °F - 28.9 °F 36% 29.93 in 10.0 mi SW 21.9 mph 28.8 mph N/A   Scattered Clouds
3:57 PM 55.0 °F - 28.0 °F 35% 29.94 in 10.0 mi SSW 16.1 mph - N/A   Mostly Cloudy
4:57 PM 54.0 °F - 28.0 °F 37% 29.96 in 10.0 mi SSW 19.6 mph 26.5 mph N/A   Mostly Cloudy
5:57 PM 53.1 °F - 27.0 °F 37% 29.96 in 10.0 mi WSW 10.4 mph 19.6 mph N/A   Mostly Cloudy
6:57 PM 52.0 °F - 28.0 °F 40% 29.97 in 10.0 mi WSW 9.2 mph 19.6 mph N/A   Overcast
7:57 PM 50.0 °F - 28.0 °F 43% 29.98 in 10.0 mi WSW 10.4 mph 18.4 mph N/A   Overcast
8:57 PM 46.9 °F - 28.0 °F 48% 30.00 in 10.0 mi West 4.6 mph - N/A   Overcast
9:57 PM 44.1 °F 42.5 °F 28.0 °F 53% 30.01 in 10.0 mi SW 3.5 mph - N/A   Mostly Cloudy
10:57 PM 39.9 °F - 28.0 °F 63% 30.03 in 10.0 mi Calm Calm - N/A   Clear
11:57 PM 36.0 °F - 27.0 °F 70% 30.05 in 10.0 mi Calm Calm - N/A   Clear